Location: Pinon Hills
(34.4429°N, 117.6403°W)
Time: 01:15:27
(UTC-08:00)

Uosat F - Visible Passes

Search period start: 24 November 2014 00:00
Search period end: 04 December 2014 00:00
Orbit: 752 x 762 km, 98.7° (Epoch: 23 November)

Date Brightness Start Highest point End Pass type
(mag) Time Alt. Az. Time Alt. Az. Time Alt. Az.
24 Nov 13.8 03:14:42 10° ENE 03:17:37 15° E 03:20:30 10° SE visible
24 Nov 11.2 04:51:47 10° N 04:56:36 49° WNW 05:01:24 10° SW visible
25 Nov 11.4 04:12:31 10° NNE 04:17:30 65° ESE 04:22:27 10° S visible
25 Nov 12.7 05:53:35 10° NW 05:55:41 13° WNW 05:57:46 10° W visible
25 Nov 14.4 17:04:14 10° WSW 17:06:11 12° W 17:08:09 10° WNW visible
26 Nov 13.1 03:34:06 10° NE 03:38:11 25° E 03:42:15 10° SSE visible
26 Nov 11.7 05:12:34 10° N 05:16:55 31° WNW 05:21:15 10° SW visible
27 Nov 10.9 04:32:54 10° N 04:37:55 78° WNW 04:42:54 10° SSW visible
28 Nov 12.2 03:54:00 10° NNE 03:58:43 40° E 04:03:23 10° S visible
28 Nov 12.3 05:33:38 10° NNW 05:37:09 20° WNW 05:40:40 10° WSW visible
29 Nov 13.7 03:16:19 10° ENE 03:19:18 16° E 03:22:15 10° SE visible
29 Nov 11.2 04:53:29 10° N 04:58:17 48° WNW 05:03:03 10° SW visible
30 Nov 11.3 04:14:11 10° NNE 04:19:11 67° ESE 04:24:08 10° S visible
30 Nov 12.7 05:55:22 10° NW 05:57:20 12° WNW 05:59:18 10° W visible
30 Nov 14.4 17:06:04 10° WSW 17:07:53 12° W 17:09:41 10° WNW visible
01 Dec 13.0 03:35:44 10° NE 03:39:52 26° E 03:43:58 10° SSE visible
01 Dec 11.8 05:14:15 10° N 05:18:34 30° WNW 05:22:52 10° SW visible
02 Dec 10.9 04:34:34 10° N 04:39:35 76° WNW 04:44:33 10° SSW visible
03 Dec 12.2 03:55:39 10° NNE 04:00:23 41° E 04:05:04 10° S visible
03 Dec 12.3 05:35:20 10° NNW 05:38:48 19° WNW 05:42:16 10° WSW visible
